Simultaneous Nadir Overpasses (SNOs) Predictions

Prediction of SNOs between GOES-16 and METOP-C Satellite Orbit:

Table of predicted SNOs for the next 14.0 days since TLE Epoch: 11/13/2020
Index Date Time (GOES-16) GOES-16 Lat,Lon METOP-C Lat,Lon Distance(km) Time Diff (sec)
1 11/14/2020 14:46:35 -0.04, -75.18 0.80, -78.97 432.23 80
2 11/15/2020 14:28:37 -0.04, -75.16 -0.33, -73.98 134.40 80
3 11/17/2020 02:44:56 0.03, -75.09 -0.76, -78.56 395.65 80
4 11/18/2020 02:26:57 0.03, -75.07 0.37, -73.57 171.21 80
5 11/19/2020 14:43:11 -0.02, -75.07 0.66, -78.13 348.85 80
6 11/20/2020 14:25:12 -0.02, -75.06 -0.47, -73.14 218.47 80
7 11/22/2020 02:44:12 0.02, -75.01 -0.62, -77.72 310.25 80
8 11/23/2020 02:23:33 0.01, -74.99 0.51, -72.73 257.59 80
9 11/24/2020 14:39:46 -0.01, -75.01 0.52, -77.29 260.92 80
10 11/25/2020 14:21:48 -0.01, -75.00 -0.62, -72.31 307.40 80
11 11/27/2020 02:40:48 0.01, -74.96 -0.41, -76.90 219.92 80
